This demonstration page uses our WeatherBlox Daily Observations layout. Learn more.

Left ArrowRight Arrow

31.84235, -102.49876

Hourly Observations for May 8, 2015

Temp ( °F °C ) Dew Point ( °F °C ) Humidity (%) Winds ( mph kmh ) Pressure ( in mb ) Visibility ( mi km ) Precip ( " mm )
12:53 am 00:53 Clear 63 17.2 56 13.3 78 78 E 10 17 29.74 1007 10 16 0.00 0.00
1:53 am 01:53 Clear 63 17.2 56 13.3 78 78 E 13 20 29.73 1007 10 16 0.00 0.00
2:18 am 02:18 Mostly Cloudy 64 17.8 56 13.3 75 75 E 13 20 29.74 1007 10 16 0.00 0.00
2:53 am 02:53 Cloudy 65 18.3 56 13.3 73 73 E 13 20 29.72 1006 10 16 0.00 0.00
3:53 am 03:53 Cloudy 65 18.3 57 13.9 76 76 E 10 17 29.72 1006 10 16 0.00 0.00
4:53 am 04:53 Cloudy 67 19.4 59 15 76 76 E 12 19 29.71 1006 9 14 0.00 0.00
5:08 am 05:08 Mostly Cloudy 67 19.4 60 15.6 79 79 E 15 24 29.74 1007 8 13 0.00 0.00
5:19 am 05:19 Mostly Cloudy 70 21.1 60 15.6 71 71 ESE 14 22 29.71 1006 8 13 0.00 0.00
5:26 am 05:26 Mostly Cloudy 68 20 60 15.6 76 76 ESE 15 24 29.74 1007 8 13 0.00 0.00
5:53 am 05:53 Partly Cloudy 68 20 61 16.1 78 78 ESE 13 20 29.70 1006 7 11 0.00 0.00
6:44 am 06:44 Mostly Cloudy with Haze 68 20 63 17.2 84 84 ESE 12 19 29.74 1007 6 10 0.00 0.00
6:53 am 06:53 Mostly Cloudy with Haze 68 20 63 17.2 84 84 ESE 10 17 29.71 1006 5 8 0.00 0.00
7:53 am 07:53 Cloudy with Haze 71 21.7 65 18.3 81 81 SE 9 15 29.72 1006 4 6 0.00 0.00
8:08 am 08:08 Cloudy with Haze 72 22.2 66 18.9 82 82 SSE 10 17 29.74 1007 4 6 0.00 0.00
8:53 am 08:53 Mostly Cloudy with Haze 73 22.8 66 18.9 79 79 S 15 24 29.75 1007 4 6 0.00 0.00
9:02 am 09:02 Cloudy with Haze 74 23.3 66 18.9 76 76 SSE 14 22 29.74 1007 4 6 0.00 0.00
9:10 am 09:10 Mostly Cloudy with Haze 75 23.9 66 18.9 74 74 S 14 22 29.71 1006 4 6 0.00 0.00
9:22 am 09:22 Mostly Cloudy with Haze 75 23.9 66 18.9 74 74 S 13 20 29.71 1006 4 6 0.00 0.00
9:30 am 09:30 Mostly Cloudy with Haze 75 23.9 65 18.3 71 71 S 17 28 29.71 1006 5 8 0.00 0.00
9:53 am 09:53 Hazy 77 25 65 18.3 66 66 S 21 33 29.75 1008 5 8 0.00 0.00
10:53 am 10:53 Hazy 81 27.2 61 16.1 51 51 S 22 35 29.76 1008 6 10 0.00 0.00
11:53 am 11:53 Sunny 82 27.8 53 11.7 37 37 SSW 23 37 29.76 1008 9 14 0.00 0.00
12:53 pm 12:53 undefined N/A N/A N/A undefined N/A N/A N/A 0.00 0.00
1:53 pm 13:53 undefined 87 30.6 48 8.9 26 26 SW 13 20 29.73 1007 9 14 0.00 0.00
2:53 pm 14:53 Sunny 91 32.8 43 6.1 19 19 SW 14 22 29.70 1006 10 16 0.00 0.00
3:53 pm 15:53 Sunny 90 32.2 34 1.1 14 14 SSW 12 19 29.68 1005 10 16 0.00 0.00
4:53 pm 16:53 Sunny 90 32.2 41 5 18 18 W 7 11 29.65 1004 10 16 0.00 0.00
5:53 pm 17:53 Sunny 91 32.8 35 1.7 14 14 SW 9 15 29.62 1003 10 16 0.00 0.00
6:53 pm 18:53 Sunny 90 32.2 34 1.1 14 14 SE 6 9 29.61 1003 10 16 0.00 0.00
7:53 pm 19:53 Sunny 88 31.1 45 7.2 22 22 SE 12 19 29.61 1003 10 16 0.00 0.00
8:53 pm 20:53 Clear 84 28.9 48 8.9 29 29 ESE 9 15 29.63 1003 10 16 0.00 0.00
9:06 pm 21:06 Partly Cloudy with Thunderstorms 83 28.3 53 11.7 36 36 SE 13 20 29.59 1002 10 16 0.00 0.00
9:21 pm 21:21 Mostly Clear 82 27.8 53 11.7 37 37 ESE 10 17 29.59 1002 10 16 0.00 0.00
9:53 pm 21:53 Mostly Clear 78 25.6 56 13.3 47 47 ESE 14 22 29.65 1004 10 16 0.00 0.00
10:53 pm 22:53 Clear 71 21.7 59 15 66 66 E 13 20 29.67 1005 10 16 0.00 0.00
11:53 pm 23:53 Mostly Clear 70 21.1 59 15 68 68 ESE 13 20 29.68 1005 10 16 0.00 0.00

Powered by AerisWeather